Overview Statistics Trail Chart Weather Telemetry Raw packets
 

This is the latest recevied weather packets stored in our database for station/object KO4YAW. If no packets are shown the sender has not sent any weather packets the latest 10 day(s).

<< 2 3 4 5 6 7 8 >>
Time Temp. Humidity Pressure Rain* Wind** Luminosity Snow
1788585663 25° C 40% 1018 hPa 0 mm - 0 W/m² -
1788584763 25.56° C 39% 1018 hPa 0 mm - 0 W/m² -
1788583863 25.56° C 38% 1017.9 hPa 0 mm - 0 W/m² -
1788582963 26.11° C 36% 1017.8 hPa 0 mm - 0 W/m² -
1788582063 26.67° C 35% 1017.7 hPa 0 mm - 0 W/m² -
1788581163 26.67° C 33% 1017.7 hPa 0 mm - 0 W/m² -
1788580263 26.67° C 34% 1017.7 hPa 0 mm - 0 W/m² -
1788579363 25.56° C 34% 1017.7 hPa 0 mm - 0 W/m² -
1788578463 26.67° C 31% 1017.7 hPa 0 mm - 0 W/m² -
1788577563 27.78° C 29% 1017.5 hPa 0 mm - 0 W/m² -
1788576663 27.78° C 27% 1017.5 hPa 0 mm - 0 W/m² -
1788575763 27.78° C 27% 1017.3 hPa 0 mm - 0 W/m² -
1788574863 28.33° C 28% 1017.1 hPa 0 mm - 0 W/m² -
1788573963 28.33° C 27% 1017 hPa 0 mm - 0 W/m² -
1788573063 27.78° C 28% 1017.1 hPa 0 mm - 0 W/m² -
1788572163 0° C 100% - 0 mm - - -
1788571263 0° C 100% - 0 mm - - -
1788570363 0° C 100% - 0 mm - - -
1788569463 0° C 100% - 0 mm - - -
1788568563 0° C 100% - 0 mm - - -
1788567663 0° C 100% - 0 mm - - -
1788566763 0° C 100% - 0 mm - - -
1788565863 0° C 100% - 0 mm - - -
1788564963 0° C 100% - 0 mm - - -
1788564063 0° C 100% - 0 mm - - -

* Rain since midnight (hover to see other rain measurements)
** Current wind speed in m/s (hover to see current wind gust speed)